{"data":{"norad_id":69668,"epoch":"2026-09-19T22:04:35.349312Z","epoch_age_seconds":71797,"freshness":"FRESH","line1":"1 69668U 26143V   26262.91985358  .00013099  00000+0  40751-3 0  9998","line2":"2 69668  97.2849 306.1168 0000825  95.7308 264.4029 15.33433120 15051","mean_motion":15.3343312,"eccentricity":8.25e-5,"inclination_deg":97.2849,"raan_deg":306.1168,"arg_perigee_deg":95.7308,"mean_anomaly_deg":264.4029,"bstar":0.00040751,"rev_number":1505,"period_min":93.906932178431,"perigee_km":465.01391469754,"apogee_km":466.14312775854,"semimajor_km":6843.715521228,"source":"CELESTRAK","updated_at":"2026-09-20T09:00:44.250697Z"}}